Weather Roundup
Issued by NWS Chicago, IL

Home | Current Version | Previous Version | Text Only | Print | Product List | Glossary Off
Versions: 1 2 3 4 5 6 7 8 9 10 11 12 13 14 15 16 17 18 19 20 21 22 23 24 25 26 27 28 29 30 31 32 33 34 35 36 37 38 39 40 41 42 43 44 45 46 47 48 49 50

122
NZUS59 KLOT 231503
HRRLOT

CHICAGO AREA WEATHER ROUNDUP
NATIONAL WEATHER SERVICE CHICAGO/ROMEOVILLE IL
1000 AM CDT SAT JUL 23 2016

NOTE: "FAIR" INDICATES FEW OR NO CLOUDS BELOW 12,000 FEET WITH NO
SIGNIFICANT WEATHER AND/OR OBSTRUCTIONS TO VISIBILITY.

* THESE STATIONS ARE NOT UNDER NWS QUALITY CONTROL. THEY ALSO MAY NOT
  REPORT WEATHER SUCH AS PRECIPITATION OR FOG.

ILZ005-006-012>014-019>023-231600-
NORTHEAST ILLINOIS

CITY           SKY/WX    TMP DP  RH WIND       PRES   REMARKS
OHARE          PTSUNNY   86  75  69 VRB3      29.98S HX  95
MIDWAY         PTSUNNY   87  76  69 CALM      29.98S HX  97
AURORA         MOSUNNY   86  77  74 SE7       29.98F HX  97
LANSING*       PTSUNNY   86  75  68 S3        29.99S HX  94
WAUKEGAN       PTSUNNY   85  77  77 E6        29.98S HX  95
DUPAGE AIRPORT MOSUNNY   86  76  71 S7        29.98S HX  96
WHEELING       PTSUNNY   87  75  67 E3        29.99S HX  96
MORRIS*        SUNNY     84  78  81 SE3       29.98S HX  95
NORTHERLY ISL    N/A     82  74  76 SE2         N/A  HX  88
$$

WIZ051-052-058>065-066-070>072-231600-
SOUTHEAST WISCONSIN

CITY           SKY/WX    TMP DP  RH WIND       PRES   REMARKS
MILWAUKEE      MOSUNNY   88  75  65 E9        29.97F HX  97
KENOSHA*       MOSUNNY   86  76  71 E7        29.98F HX  96
RACINE*        MOSUNNY   86  76  71 SE6       29.99F HX  96
BURLINGTON     MOSUNNY   86  75  69 E5        29.98S HX  96
WAUKESHA       MOSUNNY   84  73  70 CALM      29.99F HX  91
$$

INZ001>003-010>013-019-020-231600-
NORTHWEST INDIANA

CITY           SKY/WX    TMP DP  RH WIND       PRES   REMARKS
GARY*          PTSUNNY   86  84  94 CALM      29.99  HX 108
MICHIGAN CITY* NOT AVBL
RENSSELAER*    NOT AVBL
VALPARAISO     PTSUNNY   85  76  74 NE3       30.01R HX  94
$$

LMZ740>746-231600-
SOUTHERN LAKE MICHIGAN

STATION/POSITION TIME  SKY/WX   TEMP WIND        PRES    VSBY
                                AIR  DIR/SP/G
                 (UTC)          (F)  (DEG/KT/KT) (MB)    (MI)
HARRISON CRIB    1400            83   60/  1/  2   N/A
BURNHAM HARBOR   1400            81   80/  5       N/A
CALUMET HARBOR   1400            83   60/  4/  5 1014.7F
BURNS HARBOR     1400            79  270/  4/  5 1015.9F
MICHIGAN CITY    1400            78  210/  6/  7   N/A
$$

ABBREVIATIONS USED IN REMARKS
   TC - TEMPERATURE IN CELSIUS
  WCI - WIND CHILL INDEX
   HX - HEAT INDEX
  VSB - VISIBILITY
$$




USA.gov is the U.S. government's official web portal to all federal, state and local government web resources and services.